#timestamp,LO_Frequency,Hit,Temp,Hum 
1480024815.6,286047022.5,N,0.0,0.0
1480024835.5,286047026.1,N,0.0,0.0
1480024855.3,286047026.5,N,0.0,0.0
1480024875.1,286047023.7,N,0.0,0.0
1480024895.9,286047028.2,N,0.0,0.0
1480024915.7,286047025.3,N,0.0,0.0
1480024935.5,286047028.3,N,0.0,0.0
1480024955.4,286047028.0,N,0.0,0.0
1480024975.2,286047030.0,N,0.0,0.0
1480024995.1,286047027.5,N,0.0,0.0
1480024996.0,286047027.5,N,0.0,0.0
1480025015.8,286047027.7,N,0.0,0.0
1480025035.6,286047029.9,N,0.0,0.0
1480025055.5,286047028.8,N,0.0,0.0
1480025075.3,286047028.6,N,0.0,0.0
1480025095.2,286047028.8,N,0.0,0.0
1480025115.9,286047031.3,N,0.0,0.0
1480025135.7,286047031.5,N,0.0,0.0
1480025155.6,286047028.6,N,0.0,0.0
1480025175.4,286047028.5,N,0.0,0.0
1480025195.2,286047028.5,N,0.0,0.0
1480025215.1,286047028.9,N,0.0,0.0
1480025216.0,286047028.9,N,0.0,0.0
1480025235.8,286047030.4,N,0.0,0.0
1480025255.7,286047030.6,N,0.0,0.0
1480025275.5,286047033.2,N,0.0,0.0
1480025295.3,286047034.8,N,0.0,0.0
1480025315.2,286047034.4,N,0.0,0.0
1480025335.0,286047032.2,N,0.0,0.0
1480025335.9,286047032.2,N,0.0,0.0
1480025355.8,286047034.8,N,0.0,0.0
1480025375.6,286047032.1,N,0.0,0.0
1480025395.4,286047032.2,N,0.0,0.0
1480025415.3,286047036.0,N,0.0,0.0
1480025435.1,286047033.7,N,0.0,0.0
1480025455.8,286047031.9,N,0.0,0.0
1480025475.7,286047031.7,N,0.0,0.0
1480025495.5,286047033.9,N,0.0,0.0
1480025515.4,286047035.8,N,0.0,0.0
1480025535.2,286047035.7,N,0.0,0.0
1480025555.0,286047035.0,N,0.0,0.0
1480025555.9,286047035.0,N,0.0,0.0
1480025575.8,286047036.7,N,0.0,0.0
1480025595.6,286047036.7,N,0.0,0.0
1480025615.5,286047037.7,N,0.0,0.0
1480025635.3,286047039.5,N,0.0,0.0
1480025655.1,286047039.2,N,0.0,0.0
1480025675.9,286047038.3,N,0.0,0.0
1480025695.7,286047038.2,N,0.0,0.0
1480025715.5,286047040.0,N,0.0,0.0
1480025735.4,286047042.4,N,0.0,0.0
1480025755.2,286047044.3,N,0.0,0.0
1480025775.1,286047041.3,N,0.0,0.0
1480025776.0,286047041.3,N,0.0,0.0
1480025795.8,286047042.1,N,0.0,0.0
1480025815.6,286047042.4,N,0.0,0.0
1480025835.5,286047041.7,N,0.0,0.0
1480025855.3,286047041.3,N,0.0,0.0
1480025875.2,286047041.5,N,0.0,0.0
1480025895.9,286047041.9,N,0.0,0.0
1480025915.7,286047043.1,N,0.0,0.0
1480025935.6,286047045.6,N,0.0,0.0
1480025955.4,286047045.0,N,0.0,0.0
1480025975.2,286047045.3,N,0.0,0.0
1480025995.1,286047045.4,N,0.0,0.0
1480025996.0,286047045.4,N,0.0,0.0
1480026015.8,286047045.7,N,0.0,0.0
1480026035.7,286047044.5,N,0.0,0.0
1480026055.5,286047047.4,N,0.0,0.0
1480026075.3,286047046.8,N,0.0,0.0
1480026095.2,286047044.6,N,0.0,0.0
1480026115.0,286047047.1,N,0.0,0.0
1480026115.9,286047047.1,N,0.0,0.0
1480026135.8,286047046.9,N,0.0,0.0
1480026155.6,286047046.5,N,0.0,0.0
1480026175.4,286047048.7,N,0.0,0.0
1480026195.3,286047049.2,N,0.0,0.0
1480026215.1,286047048.7,N,0.0,0.0
1480026235.9,286047049.1,N,0.0,0.0
1480026255.7,286047048.5,N,0.0,0.0
1480026275.5,286047050.3,N,0.0,0.0
1480026295.4,286047049.9,N,0.0,0.0
1480026315.2,286047050.1,N,0.0,0.0
1480026335.0,286047049.6,N,0.0,0.0
1480026336.0,286047049.6,N,0.0,0.0
1480026355.8,286047050.1,N,0.0,0.0
1480026375.6,286047049.4,N,0.0,0.0
1480026395.5,286047051.9,N,0.0,0.0
1480026415.3,286047051.7,N,0.0,0.0
1480026435.1,286047051.7,N,0.0,0.0
1480026455.9,286047051.4,N,0.0,0.0
1480026475.7,286047053.6,N,0.0,0.0
1480026495.6,286047053.8,N,0.0,0.0
1480026515.4,286047053.0,N,0.0,0.0
1480026535.2,286047053.9,N,0.0,0.0
1480026555.1,286047053.4,N,0.0,0.0
1480026556.0,286047053.4,N,0.0,0.0
1480026575.8,286047055.5,N,0.0,0.0
1480026595.7,286047052.6,N,0.0,0.0
1480026615.5,286047053.0,N,0.0,0.0
1480026635.3,286047054.9,N,0.0,0.0
1480026655.2,286047053.4,N,0.0,0.0
1480026675.0,286047053.1,N,0.0,0.0
1480026675.9,286047053.1,N,0.0,0.0
1480026695.7,286047053.2,N,0.0,0.0
1480026715.6,286047055.0,N,0.0,0.0
1480026735.4,286047054.8,N,0.0,0.0
1480026755.3,286047054.2,N,0.0,0.0
1480026775.1,286047057.1,N,0.0,0.0
1480026795.8,286047057.0,N,0.0,0.0
1480026815.7,286047056.3,N,0.0,0.0
1480026835.5,286047057.2,N,0.0,0.0
1480026855.3,286047054.7,N,0.0,0.0
1480026875.2,286047056.7,N,0.0,0.0
1480026895.0,286047056.2,N,0.0,0.0
1480026895.9,286047056.2,N,0.0,0.0
1480026915.8,286047058.6,N,0.0,0.0
1480026935.6,286047058.5,N,0.0,0.0
1480026955.4,286047058.0,N,0.0,0.0
1480026975.3,286047058.7,N,0.0,0.0
1480026995.1,286047058.2,N,0.0,0.0
1480027015.9,286047057.6,N,0.0,0.0
1480027035.7,286047060.0,N,0.0,0.0
1480027055.5,286047060.3,N,0.0,0.0
1480027075.4,286047057.8,N,0.0,0.0
1480027095.2,286047057.4,N,0.0,0.0
1480027115.0,286047060.0,N,0.0,0.0
1480027116.0,286047060.0,N,0.0,0.0
1480027135.8,286047057.4,N,0.0,0.0
1480027155.6,286047057.4,N,0.0,0.0
1480027175.5,286047060.1,N,0.0,0.0
1480027195.3,286047058.9,N,0.0,0.0
1480027215.1,286047061.7,N,0.0,0.0
1480027235.9,286047060.7,N,0.0,0.0
1480027255.7,286047063.5,N,0.0,0.0
1480027275.6,286047061.2,N,0.0,0.0
1480027295.4,286047061.2,N,0.0,0.0
1480027315.2,286047062.7,N,0.0,0.0
1480027335.1,286047062.8,N,0.0,0.0
1480027336.0,286047062.8,N,0.0,0.0
1480027355.8,286047062.1,N,0.0,0.0
1480027375.7,286047062.2,N,0.0,0.0
1480027395.5,286047064.7,N,0.0,0.0
1480027415.3,286047065.0,N,0.0,0.0
1480027435.2,286047065.0,N,0.0,0.0
1480027455.9,286047064.8,N,0.0,0.0
1480027475.7,286047064.8,N,0.0,0.0
1480027495.6,286047064.5,N,0.0,0.0
1480027515.4,286047066.4,N,0.0,0.0
1480027535.2,286047066.8,N,0.0,0.0
1480027555.1,286047066.7,N,0.0,0.0
1480027556.0,286047066.7,N,0.0,0.0
1480027575.8,286047063.7,N,0.0,0.0
1480027595.7,286047066.2,N,0.0,0.0
1480027615.5,286047065.5,N,0.0,0.0
1480027635.3,286047065.6,N,0.0,0.0
1480027655.2,286047065.5,N,0.0,0.0
1480027675.0,286047066.1,N,0.0,0.0
1480027675.9,286047066.1,N,0.0,0.0
1480027695.8,286047065.2,N,0.0,0.0
1480027715.6,286047063.2,N,0.0,0.0
1480027735.4,286047061.0,N,0.0,0.0
1480027755.3,286047063.3,N,0.0,0.0
1480027775.1,286047065.0,N,0.0,0.0
1480027795.9,286047066.3,N,0.0,0.0
1480027815.7,286047065.5,N,0.0,0.0
1480027835.5,286047068.4,N,0.0,0.0
1480027855.4,286047067.7,N,0.0,0.0
1480027875.2,286047068.4,N,0.0,0.0
1480027895.0,286047068.2,N,0.0,0.0
1480027895.9,286047068.2,N,0.0,0.0
1480027915.8,286047065.7,N,0.0,0.0
1480027935.6,286047062.9,N,0.0,0.0
1480027955.5,286047063.4,N,0.0,0.0
1480027975.3,286047062.1,N,0.0,0.0
1480027995.1,286047063.6,N,0.0,0.0
1480028015.9,286047063.2,N,0.0,0.0
1480028035.7,286047061.0,N,0.0,0.0
1480028055.5,286047063.2,N,0.0,0.0
1480028075.4,286047059.1,N,0.0,0.0
1480028095.2,286047060.4,N,0.0,0.0
1480028115.1,286047055.7,N,0.0,0.0
1480028116.0,286047055.7,N,0.0,0.0
1480028135.8,286047057.8,N,0.0,0.0
1480028155.6,286047062.6,N,0.0,0.0
1480028175.5,286047063.7,N,0.0,0.0
1480028195.3,286047066.7,N,0.0,0.0
1480028215.2,286047065.0,N,0.0,0.0
1480028235.9,286047060.8,N,0.0,0.0
1480028255.7,286047059.0,N,0.0,0.0
1480028275.6,286047057.7,N,0.0,0.0
1480028295.4,286047057.7,N,0.0,0.0
1480028315.2,286047060.4,N,0.0,0.0
1480028335.1,286047061.8,N,0.0,0.0
1480028336.0,286047061.8,N,0.0,0.0
1480028355.8,286047060.1,N,0.0,0.0
1480028375.7,286047059.1,N,0.0,0.0
1480028395.5,286047061.3,N,0.0,0.0
